Location: Utrecht
(52.0917°N, 5.1178°E)
Time: 04:35:47
(UTC+01:00)

N. Korean satellite - Visible Passes

Search period start: 16 December 2017 00:00
Search period end: 26 December 2017 00:00
Orbit: 461 x 513 km, 97.2° (Epoch: 15 December)

Date Brightness Start Highest point End Pass type
(mag) Time Alt. Az. Time Alt. Az. Time Alt. Az.
16 Dec 10.1 06:15:49 10° ENE 06:17:12 12° E 06:18:33 10° ESE visible
16 Dec 6.6 07:47:29 10° N 07:51:14 75° WNW 07:54:54 10° SSW visible
16 Dec 6.7 18:28:40 10° SSE 18:32:25 84° WSW 18:36:13 10° NNW visible
17 Dec 7.3 07:23:57 10° NNE 07:27:39 60° E 07:31:16 10° S visible
17 Dec 6.7 18:05:13 10° SSE 18:08:52 54° ENE 18:12:35 10° N visible
17 Dec 9.7 19:40:19 10° SW 19:42:43 16° W 19:45:08 10° NW visible
18 Dec 8.5 07:00:35 10° NNE 07:03:59 33° E 07:07:18 10° SSE visible
18 Dec 7.4 17:42:03 10° SE 17:45:24 32° ENE 17:48:48 10° N visible
18 Dec 8.8 19:15:43 10° SSW 19:18:57 27° W 19:22:12 10° NW visible
19 Dec 9.5 06:37:29 10° NE 06:40:14 19° E 06:42:55 10° SE visible
19 Dec 8.0 17:19:15 10° ESE 17:22:01 20° ENE 17:24:48 10° NNE visible
19 Dec 7.7 18:51:37 10° S 18:55:15 47° W 18:58:55 10° NNW visible
20 Dec 10.1 06:15:10 10° ENE 06:16:24 11° E 06:17:36 10° ESE visible
20 Dec 6.5 07:46:43 10° N 07:50:26 76° WNW 07:54:03 10° SSW visible
20 Dec 6.7 18:27:52 10° SSE 18:31:37 85° WSW 18:35:25 10° NNW visible
21 Dec 7.3 07:23:10 10° NNE 07:26:50 59° E 07:30:24 10° S visible
21 Dec 6.7 18:04:25 10° SSE 18:08:05 54° ENE 18:11:47 10° N visible
21 Dec 9.7 19:39:29 10° SW 19:41:54 16° W 19:44:21 10° NW visible
22 Dec 8.6 06:59:48 10° NNE 07:03:09 32° E 07:06:26 10° SSE visible
22 Dec 7.4 17:41:15 10° SE 17:44:36 31° ENE 17:47:58 10° N visible
22 Dec 8.8 19:14:53 10° SSW 19:18:08 27° W 19:21:23 10° NW visible
23 Dec 9.6 06:36:43 10° NE 06:39:23 19° E 06:42:01 10° SE visible
23 Dec 8.0 17:18:27 10° ESE 17:21:12 20° ENE 17:23:57 10° NNE visible
23 Dec 7.7 18:50:47 10° S 18:54:25 47° W 18:58:05 10° NNW visible
24 Dec 10.1 06:14:29 10° ENE 06:15:32 11° E 06:16:34 10° ESE visible
24 Dec 6.5 07:45:54 10° N 07:49:35 77° WNW 07:53:10 10° SSW visible
24 Dec 6.6 18:27:01 10° SSE 18:30:47 86° WSW 18:34:35 10° NNW visible
25 Dec 7.3 07:22:21 10° NNE 07:25:58 57° E 07:29:30 10° S visible
25 Dec 6.7 18:03:34 10° SSE 18:07:14 53° ENE 18:10:55 10° N visible
25 Dec 9.7 19:38:35 10° SW 19:41:03 16° W 19:43:31 10° NW visible
